Regional Weather Roundup
Issued by NWS

Home | Current Version | Previous Version | Graphics & Text | Print | Product List | Glossary On
Versions: 1 2 3 4 5 6 7 8 9 10 11 12 13 14 15 16 17 18 19 20 21 22 23 24 25 26 27 28 29 30 31 32 33 34 35 36 37 38 39 40 41 42 43 44 45 46 47 48 49 50
196
ASUS43 KDMX 170201
RWRIA

WEATHER ROUNDUP FOR IOWA
NATIONAL WEATHER SERVICE DES MOINES IA
800 PM CST MON JAN 16 2017

NOTE: "FAIR" INDICATES FEW OR NO CLOUDS BELOW 12,000 FEET WITH NO
SIGNIFICANT WEATHER AND/OR OBSTRUCTIONS TO VISIBILITY.

* - THESE STATIONS ARE NOT NWS STATIONS...THUS NOT UNDER NWS
QUALITY CONTROL.  THEY ALSO DO NOT REPORT WEATHER SUCH
AS PRECIPITATION OR FOG.

IAZ001>003-012>014-020>022-031>034-043>046-170300-
   NORTHWEST IOWA

CITY           SKY/WX    TMP DP  RH WIND       PRES   REMARKS
CARROLL *      CLOUDY    34  34 100 N9        29.91R FOG     WCI  26
CHEROKEE *     MIX PCPN  32  32 100 N3        29.95F
DENISON *      CLOUDY    32  32 100 N7        29.91R FOG     WCI  26
LE MARS *      CLOUDY    32  32 100 N7        29.98S WCI  26
ORANGE CITY *  LGT RAIN  32  32 100 N3        29.96S
SHELDON *      LGT RAIN  32  32 100 N7        29.95S WCI  26
SIOUX CITY     CLOUDY    34  32  92 N10       29.97S WCI  26
SPENCER        MIX PCPN  32  31  96 N10       29.95S WCI  24
STORM LAKE *   CLOUDY    32  32 100 N12       29.93S FOG     WCI  23
$$

IAZ055>058-069>071-079>083-090>094-170300-
   SOUTHWEST IOWA

CITY           SKY/WX    TMP DP  RH WIND       PRES   REMARKS
ATLANTIC *     CLOUDY    34  32  93 N7        29.90S WCI  28
AUDUBON *      CLOUDY    32  30  93 N5        29.91S FOG     WCI  27
CLARINDA *     CLOUDY    34  34 100 N8        29.91S FOG     WCI  27
COUNCIL BLFS * CLOUDY    32  32 100 N12       29.92S FOG     WCI  23
CRESTON *      MIX PCPN  32  32 100 N8        29.88R VSB 1/4 WCI  25
HARLAN  *      CLOUDY    32  32 100 N8        29.95R FOG     WCI  25
LAMONI         FOG       35  34  96 N6        29.86S VSB 3/4 WCI  30
RED OAK *      CLOUDY    34  34 100 N8        29.91S FOG     WCI  27
SHENANDOAH *   CLOUDY    34  34 100 N8        29.92R WCI  27
$$

IAZ047>049-059>061-072>074-084-170300-
   CENTRAL IOWA

CITY           SKY/WX    TMP DP  RH WIND       PRES   REMARKS
AMES           CLOUDY    33  33 100 NE3       29.89F
ANKENY *       CLOUDY    32  32 100 N5        29.90S WCI  27
BOONE *        FOG       32  32 100 N6        29.88S VSB 1/4 WCI  26
CHARITON *     LGT RAIN  34  34 100 N6        29.86S VSB 1/4 WCI  29
DES MOINES     DRZL/FOG  34  33  96 NE3       29.89S VSB 1/4
GRINNELL*      SNOW      33  33  99 NE3       29.87S VSB 1/4
KNOXVILLE *    FOG       34  34 100 N5        29.86S VSB<1/4 WCI  30
MARSHALLTOWN   CLOUDY    33  33 100 NE6       29.88F FOG     WCI  28
NEWTON *       FOG       32  32 100 N7        29.87S VSB<1/4 WCI  26
PELLA *        FOG       34  34  99 CALM      29.89S VSB 1/4
PERRY *        CLOUDY    33  33 100 N3        29.90S FOG
$$

IAZ004>006-015-016-023>025-035-036-170300-
   NORTH CENTRAL IOWA

CITY           SKY/WX    TMP DP  RH WIND       PRES   REMARKS
ALGONA *       CLOUDY    32  32 100 N9        29.93S FOG     WCI  24
CLARION *      CLOUDY    32  32 100 NE10      29.90F FOG     WCI  24
ESTHERVILLE    FRZ RAIN  31  31 100 N10       29.94F FOG     WCI  22
FORT DODGE *   CLOUDY    32  30  93 CALM      29.91F
MASON CITY     CLOUDY    32  31  96 NE9       29.92F FOG     WCI  24
FOREST CITY *  CLOUDY    32  32 100 NE8       29.92F FOG     WCI  25
WEBSTER CITY * CLOUDY    34  34 100 NE8       29.88F FOG     WCI  27
IOWA FALLS *   CLOUDY    33  32  96 NE5       29.90F FOG     WCI  29
$$

IAZ007>011-017>019-026>030-037>042-050>054-066-170300-
   NORTHEAST IOWA

CITY           SKY/WX    TMP DP  RH WIND       PRES   REMARKS
CEDAR RAPIDS   DRZL/FOG  34  34 100 E3        29.86F VSB 1/4
CHARLES CITY * CLOUDY    34  34 100 MISG      29.91F FOG
CLINTON *      CLOUDY    35  35 100 E9        29.90F FOG     WCI  28
DECORAH *      LGT RAIN  32  32 100 E8        29.91F WCI  25
DUBUQUE        FOG       33  33 100 NE6       29.90F VSB 1/4 WCI  28
MONTICELLO *   CLOUDY    36  34  93 E6        29.88F FOG     WCI  31
OELWEIN *      CLOUDY    34  34 100 E8        29.89F FOG     WCI  27
WATERLOO       CLOUDY    33  32  96 E6        29.89F FOG     WCI  28
$$

IAZ064-065-067-068-078-170300-
   EAST CENTRAL IOWA

CITY           SKY/WX    TMP DP  RH WIND       PRES   REMARKS
DAVENPORT      CLOUDY    35  35 100 E8        29.89F FOG     WCI  29
IOWA CITY      FOG       37  36  96 E3        29.89F VSB 1
MUSCATINE *    CLOUDY    37  36  93 NE5       29.88F WCI  34
QUAD CITIES    CLOUDY    37  35  92 NE5       29.88F FOG     WCI  33
$$

IAZ062-063-075>077-085>089-095>099-170300-
   SOUTHEAST IOWA

CITY           SKY/WX    TMP DP  RH WIND       PRES   REMARKS
BURLINGTON     FOG       39  39 100 E6        29.85F VSB 1/2 WCI  35
FAIRFIELD *    FOG       37  37 100 CALM      29.86S VSB 1/4
FORT MADISON * LGT RAIN  39  39 100 E3        29.86F VSB 1/4
KEOKUK *       LGT RAIN  41  41 100 E7        29.84F VSB 1/4
OSKALOOSA *    LGT RAIN  34  34  99 CALM      29.87S VSB 1/2
CENTERVILLE *  LGT RAIN  37  36  93 CALM      29.86F
OTTUMWA        LGT RAIN  37  37 100 SE3       29.85S FOG
WASHINGTON *   FOG       36  36 100 SE7       29.87F VSB 1/4 WCI  30
$$

ABBREVIATIONS USED IN REMARKS
   TC - TEMPERATURES IN CELSIUS
  WCI - WIND CHILL INDEX
   HX - HEAT INDEX
  VSB - VISIBILITY
$$





USA.gov is the U.S. government's official web portal to all federal, state and local government web resources and services.